Regional Weather Roundup
Issued by NWS

Home | Current Version | Previous Version | Graphics & Text | Print | Product List | Glossary On
Versions: 1 2 3 4 5 6 7 8 9 10 11 12 13 14 15 16 17 18 19 20 21 22 23 24 25 26 27 28 29 30 31 32 33 34 35 36 37 38 39 40 41 42 43 44 45 46 47 48 49 50
000
ASUS43 KLOT 250503
RWRIL

ILLINOIS REGIONAL WEATHER ROUNDUP
NATIONAL WEATHER SERVICE CHICAGO/ROMEOVILLE IL
1200 AM CDT SAT MAR 25 2017

NOTE: "FAIR" INDICATES FEW OR NO CLOUDS BELOW 12,000 FEET WITH NO
SIGNIFICANT WEATHER AND/OR OBSTRUCTIONS TO VISIBILITY.

* THESE STATIONS ARE NOT UNDER NWS QUALITY CONTROL. THEY ALSO MAY NOT
  REPORT WEATHER SUCH AS PRECIPITATION OR FOG.

ILZ001-002-007-009-015-016-024-250600-
NORTHWEST ILLINOIS

CITY           SKY/WX    TMP DP  RH WIND       PRES   REMARKS
MOLINE         CLOUDY    56  54  93 NE9       29.98F FOG
STERLING*      LGT RAIN  44  42  93 NE16      30.04R FOG
SAVANNA*       CLOUDY    44  41  89 NE14      30.05S
$$

ILZ003-004-008-010-011-017-018-250600-
NORTH CENTRAL ILLINOIS

CITY           SKY/WX    TMP DP  RH WIND       PRES   REMARKS
ROCKFORD       LGT RAIN  41  38  89 NE13      30.08R
FREEPORT*      LGT RAIN  40  39  95 NE13G18   30.09R
ROCHELLE*      LGT RAIN  41  39  94 N15       30.07R
DE KALB*       LGT RAIN  41  38  92 NE13      30.05R
PERU*          CLOUDY    46  38  76 NE12      30.04R
$$

ILZ005-006-012>014-019>023-250600-
NORTHEAST ILLINOIS

CITY           SKY/WX    TMP DP  RH WIND       PRES   REMARKS
CHICAGO-OHARE  CLOUDY    43  36  76 NE14      30.04F
CHICAGO-MIDWAY CLOUDY    42  38  85 NE9G23    30.05F
AURORA         MOCLDY    44  37  76 NE10      30.03F
LANSING*       CLOUDY    39  38  97 N8        30.07S WCI  34
JOLIET*        CLOUDY    44  40  88 NE10      30.04S
WAUKEGAN       CLOUDY    38  36  92 N10G24    30.07R WCI  31
DUPAGE AIRPORT MOCLDY    43  39  86 N12       30.04F
KANKAKEE*      CLOUDY    47  41  78 N7        30.04R
WHEELING       CLOUDY    40  38  93 N12       30.07F
MORRIS*        MOCLDY    43  39  86 NE6       30.03R
ROMEOVILLE*    CLOUDY    41  40  96 E12       30.04R
NORTHERLY ISL    N/A     38  36  92 N15         N/A  WCI  29
$$

LMZ740>746-250600-
SOUTHERN LAKE MICHIGAN

STATION/POSITION SKY/WX   TEMP    WIND        PRES    VSBY  WAVE
                          AIR SEA DIR/SP/G                  HT/PER
                          (F)     (DEG/KT/KT) (MB)    (MI)  (FT/S)
HARRISON CRIB                     350/ 17/ 19   N/A
BURNHAM HARBOR                    350/ 17/ 19   N/A
CALUMET HARBOR                    330/ 16/ 23 1017.6
BURNS HARBOR               38     330/  7/  9 1018.6R
MICHIGAN CITY              38     280/ 10/ 11   N/A
$$

ILZ025>027-034>036-040-047-049-050-058-095>099-250600-
WEST-CENTRAL ILLINOIS

CITY           SKY/WX    TMP DP  RH WIND       PRES   REMARKS
QUINCY         LGT RAIN  57  55  93 SE9       29.92S
GALESBURG*     DRIZZLE   55  55  99 E5        29.96S
MACOMB*        CLOUDY    55  54  99 E9        29.97F
JACKSONVILLE*  LGT RAIN  58  54  87 NE8       29.93F
PITTSFIELD*    CLOUDY    58  56  93 NE12      29.92F
$$

ILZ028>032-037-038-041>044-048-051>054-059>061-250600-
CENTRAL ILLINOIS

CITY           SKY/WX    TMP DP  RH WIND       PRES   REMARKS
PONTIAC        CLOUDY    50  46  85 NE12      30.01S
BLOOMINGTON    CLOUDY    60  50  69 E7        30.00F
DECATUR        CLOUDY    65  54  67 S12       29.99F
PEORIA         CLOUDY    60  53  77 NE6       29.99F
LACON*         LGT RAIN  50  45  80 NE8       30.00S
LINCOLN*       LGT RAIN  61  56  81 SE3       29.98F
SPRINGFIELD    LGT RAIN  64  58  80 SE14      29.95F
TAYLORVILLE    CLOUDY    64  55  72 S10       29.98S
$$

ILZ033-039-045-046-055>057-062-063-250600-
EAST-CENTRAL ILLINOIS

CITY           SKY/WX    TMP DP  RH WIND       PRES   REMARKS
CHAMPAIGN      CLOUDY    64  53  67 S16       30.00F
RANTOUL*       CLOUDY    62  56  80 S8        30.00S
MATTOON        CLOUDY    63  54  72 S10       30.00F
PARIS*         CLOUDY    63  54  74 S13       30.03F
$$

ILZ079-100>102-250600-
SOUTHWEST ILLINOIS

CITY           SKY/WX    TMP DP  RH WIND       PRES   REMARKS
ALTON          LGT RAIN  63  56  79 SE12G17   29.93F
BELLEVILLE     CLEAR     66  57  71 SE13G20   29.92F
CAHOKIA*       CLOUDY    67  55  65 SE15      29.91F
SPARTA*        CLOUDY    66  56  69 SE12      29.96F
$$

ILZ064>066-069>071-074>076-080>082-084>086-088>090-092>094-250600-
SOUTH-CENTRAL ILLINOIS

CITY           SKY/WX    TMP DP  RH WIND       PRES   REMARKS
CARBONDALE     CLOUDY    67  56  67 SE12G25   29.96F
CAIRO*         CLOUDY    67  56  68 SE15G22   29.97F
EFFINGHAM*     CLOUDY    64  55  74 SE9       30.02F
MARION         CLOUDY    68  55  64 SE9       29.99F
MT. VERNON     CLOUDY    65  55  70 SE8       30.00F
CENTRALIA*     CLOUDY    66  57  71 SE14      29.98F
SALEM*         CLOUDY    66  55  67 SE6       29.99F
METROPOLIS*    CLOUDY    67  55  66 SE9       30.01F
$$

ILZ067-068-072-073-078-083-087-091-250600-
SOUTHEAST ILLINOIS

CITY           SKY/WX    TMP DP  RH WIND       PRES   REMARKS
LAWRENCEVILLE  CLOUDY    60  52  74 S9        30.04F
FLORA*         CLOUDY    63  55  75 SE9       30.01F
FAIRFIELD*     MOCLDY    64  54  70 SE6       30.01F
HARRISBURG*    CLOUDY    65  56  72 SE12      30.01F
ROBINSON*      CLOUDY    59  52  76 S8        30.05F
CARMI*         MOCLDY    62  55  76 SE9       30.02F
$$

ABBREVIATIONS USED IN REMARKS
   TC - TEMPERATURE IN CELSIUS
  WCI - WIND CHILL INDEX
   HX - HEAT INDEX
  VSB - VISIBILITY
$$




USA.gov is the U.S. government's official web portal to all federal, state and local government web resources and services.